Date,TemperatureHighF,TemperatureAvgF,TemperatureLowF,DewpointHighF,DewpointAvgF,DewpointLowF,HumidityHigh,HumidityAvg,HumidityLow,PressureMaxIn,PressureMinIn,WindSpeedMaxMPH,WindSpeedAvgMPH,GustSpeedMaxMPH,PrecipitationSumIn
2014-1-1,53.7,42.2,33.3,41.0,32.4,26.0,81,68,55,30.43,30.15,6,0,8,0.00
2014-1-2,48.1,45.5,42.9,40.0,36.5,34.0,85,71,64,30.15,29.48,4,0,9,0.50
2014-1-3,42.8,30.7,24.7,38.0,17.5,7.0,84,59,38,30.50,29.48,21,8,27,0.02
2014-1-4,43.2,33.3,21.5,29.0,21.7,13.0,71,63,45,30.57,30.29,7,1,9,0.00
2014-1-5,63.7,52.8,36.4,57.0,44.4,28.0,83,73,66,30.29,29.79,10,2,13,0.03
2014-1-6,66.9,51.5,27.6,59.0,42.0,8.0,83,71,39,30.03,29.58,17,6,26,0.10
2014-1-7,26.6,19.8,14.5,7.0,1.2,-3.0,50,45,36,30.51,30.04,13,4,18,0.00
2014-1-8,39.2,27.5,18.7,21.0,10.9,1.0,70,52,27,30.64,30.49,6,1,8,0.00
2014-1-9,45.0,34.6,28.3,31.0,23.8,16.0,84,66,34,30.61,30.52,6,0,11,0.00
2014-1-10,61.9,44.7,33.7,54.0,39.3,29.0,86,81,64,30.51,30.14,7,1,11,0.08
2014-1-11,72.5,63.5,57.3,63.0,57.8,51.0,86,81,72,30.13,29.52,19,5,24,1.17
2014-1-12,57.9,50.9,41.6,51.0,38.3,32.0,78,63,45,30.17,29.60,9,3,15,0.00
2014-1-13,61.6,50.8,37.5,45.0,38.2,31.0,79,63,40,30.21,29.97,14,3,20,0.00
2014-1-14,59.9,52.6,42.2,55.0,46.4,38.0,86,80,66,29.97,29.69,8,1,14,0.38
2014-1-15,55.5,45.9,38.3,48.0,40.4,35.0,87,81,68,30.01,29.85,4,0,6,0.01
2014-1-16,44.7,38.0,31.5,41.0,30.6,27.0,85,75,69,30.04,29.88,13,3,16,0.00
2014-1-17,53.8,42.9,31.2,39.0,31.1,26.0,83,65,42,30.05,29.86,9,3,15,0.01
2014-1-18,49.2,39.7,30.3,39.0,26.2,16.0,77,60,43,30.04,29.76,11,3,21,0.01
2014-1-19,52.2,41.0,29.1,30.0,25.2,19.0,67,55,39,30.02,29.82,12,4,18,0.00
2014-1-20,64.8,49.7,39.9,35.0,30.7,28.0,66,51,27,29.87,29.68,21,3,21,0.00
2014-1-21,56.3,41.8,26.4,45.0,33.2,22.0,84,72,64,29.86,29.52,24,6,26,0.02
2014-1-22,26.3,20.5,15.7,22.0,9.5,4.0,84,64,44,30.14,29.72,20,6,24,0.00
2014-1-23,35.1,25.8,15.3,17.0,12.1,3.0,78,58,41,30.42,30.13,11,2,18,0.00
2014-1-24,25.4,20.6,16.5,6.0,2.8,0.0,53,46,37,30.59,30.27,11,4,17,0.00
2014-1-25,38.3,30.1,19.8,21.0,11.8,4.0,55,47,37,30.26,29.60,15,7,28,0.00
2014-1-26,46.6,38.8,27.5,31.0,19.4,9.0,65,47,28,30.00,29.73,16,3,18,0.00
2014-1-27,62.6,45.8,32.5,40.0,31.6,17.0,67,59,43,30.13,29.74,17,6,22,0.00
2014-1-28,32.4,24.6,20.3,17.0,12.2,2.0,82,61,38,30.39,30.13,12,5,21,0.00
2014-1-29,24.0,21.3,16.2,17.0,13.5,9.0,82,72,57,30.40,30.15,11,3,18,0.00
2014-1-30,33.2,24.0,8.6,26.0,16.3,3.0,83,73,64,30.48,30.23,7,1,13,0.02
2014-1-31,53.1,36.0,24.2,31.0,24.0,17.0,83,65,28,30.24,30.13,5,0,7,0.00
2014-2-1,53.2,39.7,25.4,41.0,32.0,21.0,86,75,45,30.30,30.06,5,0,7,0.33
2014-2-2,60.4,51.1,42.7,48.0,43.7,39.0,87,76,63,30.06,29.98,8,2,13,0.00
2014-2-3,52.5,44.9,37.0,46.0,39.7,31.0,85,82,78,30.31,29.88,13,3,18,0.18
2014-2-4,39.7,37.2,36.1,36.0,31.6,30.0,86,80,73,30.44,30.09,8,3,14,0.15
2014-2-5,49.9,43.1,37.1,46.0,38.8,33.0,87,84,77,30.08,29.74,10,2,17,0.13
2014-2-6,39.7,34.4,32.9,35.0,25.4,23.0,84,70,67,30.37,30.04,10,3,21,0.00
2014-2-7,43.1,36.0,30.1,31.0,27.2,24.0,81,70,61,30.36,30.28,8,1,8,0.00
2014-2-8,40.2,35.7,29.6,31.0,28.0,23.0,83,74,69,30.31,30.17,9,2,14,0.00
2014-2-9,44.7,37.7,29.2,34.0,28.8,23.0,79,70,66,30.23,30.01,7,1,11,0.00
2014-2-10,44.0,35.1,31.4,35.0,25.5,22.0,72,68,66,30.31,30.01,12,3,16,0.00
2014-2-11,32.1,29.5,28.0,22.0,18.7,16.0,68,64,56,30.45,30.30,13,4,16,0.00
2014-2-12,43.8,31.7,26.0,40.0,23.7,12.0,86,73,56,30.47,29.85,10,4,19,0.27
2014-2-13,46.1,40.4,36.2,42.0,36.1,31.0,86,84,79,29.82,29.27,13,4,18,0.79
2014-2-14,60.0,47.6,38.0,34.0,30.6,26.0,79,54,28,29.77,29.46,17,5,23,0.00
2014-2-15,48.0,41.7,33.7,37.0,32.6,23.0,82,70,63,29.98,29.47,17,3,24,0.26
2014-2-16,48.1,38.8,28.9,31.0,24.8,17.0,70,58,42,30.19,29.96,10,2,15,0.00
2014-2-17,35.9,33.9,32.1,26.0,23.4,22.0,69,66,60,30.44,30.20,11,3,17,0.00
2014-2-18,64.1,46.8,36.0,39.0,31.0,25.0,83,59,24,30.23,30.06,11,3,20,0.04
2014-2-19,69.4,57.6,40.6,55.0,45.5,30.0,75,64,44,30.11,29.79,17,4,25,0.00
2014-2-20,66.8,55.2,46.3,59.0,42.4,33.0,78,63,46,30.28,30.01,11,2,19,0.00
2014-2-21,76.9,64.2,48.8,62.0,55.1,39.0,80,72,60,30.01,29.77,22,7,27,0.72
2014-2-22,59.3,50.1,40.3,46.0,38.7,34.0,79,66,51,30.20,29.98,6,1,9,0.00
2014-2-23,68.8,53.8,37.2,43.0,37.7,33.0,86,59,30,30.12,29.85,7,2,13,0.00
2014-2-24,57.7,46.7,39.7,42.0,34.9,27.0,74,64,37,30.16,29.88,7,2,17,0.00
2014-2-25,41.0,37.8,33.1,28.0,25.8,24.0,71,62,52,30.15,29.99,5,1,9,0.00
2014-2-26,40.5,36.8,30.3,30.0,26.9,21.0,71,68,62,30.03,29.82,8,2,14,0.00
2014-2-27,51.6,39.3,28.5,29.0,20.5,12.0,77,51,22,30.05,29.68,19,4,20,0.00
2014-2-28,35.3,28.2,24.5,22.0,15.3,9.0,67,59,48,30.42,30.06,15,4,18,0.00
2014-3-1,43.9,37.5,31.0,33.0,28.4,21.0,78,70,66,30.37,30.22,5,1,8,0.00
2014-3-2,71.2,51.2,36.0,46.0,38.2,30.0,82,64,40,30.23,29.91,13,3,20,0.00
2014-3-3,43.7,33.1,24.7,36.0,27.0,17.0,84,78,70,30.30,29.89,13,6,23,0.00
2014-3-4,32.7,29.3,23.9,28.0,22.1,16.0,83,75,70,30.34,30.20,9,4,19,0.04
2014-3-5,38.0,35.6,31.9,31.0,28.7,25.0,85,76,62,30.30,30.16,8,3,14,0.10
2014-3-6,39.4,36.8,34.4,32.0,27.7,25.0,76,70,66,30.44,30.22,15,6,23,0.00
2014-3-7,42.0,40.1,38.4,37.0,35.0,32.0,85,82,75,30.21,29.82,17,8,29,0.92
2014-3-8,64.2,48.6,36.9,42.0,36.4,31.0,80,64,40,30.02,29.86,10,2,23,0.00
2014-3-9,51.7,48.2,39.7,40.0,36.0,30.0,69,63,52,30.07,29.90,11,2,16,0.00
2014-3-10,68.5,50.8,34.8,42.0,35.0,30.0,83,59,30,30.04,29.74,8,1,13,0.00
2014-3-11,78.2,63.8,54.2,45.0,40.9,36.0,60,45,22,29.75,29.62,6,2,11,0.00
2014-3-12,70.8,62.3,51.2,55.0,49.1,36.0,79,63,56,29.68,29.18,16,6,28,0.19
2014-3-13,50.4,38.8,35.1,35.0,12.8,3.0,60,36,22,30.22,29.41,21,8,30,0.00
2014-3-14,57.5,43.2,27.9,32.0,21.0,11.0,68,44,25,30.35,30.06,13,4,20,0.00
2014-3-15,71.5,60.1,51.7,42.0,39.4,33.0,63,49,29,30.06,29.87,16,6,23,0.00
2014-3-16,55.5,44.6,36.4,38.0,33.8,30.0,83,67,52,30.13,29.95,17,5,23,0.42
2014-3-17,38.3,36.5,34.1,33.0,31.6,29.0,84,82,77,30.00,29.85,17,6,23,0.38
2014-3-18,42.6,40.4,37.6,38.0,35.4,33.0,85,82,75,30.15,29.94,15,6,21,0.64
2014-3-19,53.6,46.2,40.4,49.0,40.9,35.0,86,82,74,30.17,29.91,9,3,15,0.06
2014-3-20,65.3,53.6,47.3,45.0,41.8,32.0,85,67,29,29.95,29.86,9,5,19,0.00
2014-5-7,72.1,66.9,63.2,59.0,54.6,50.0,75,65,58,30.19,30.13,8,3,11,0.00
2014-5-8,89.7,76.5,66.5,67.0,62.7,60.0,84,65,38,30.14,30.02,9,2,12,0.00
2014-5-9,88.7,76.0,67.0,67.0,61.4,56.0,78,61,48,30.09,30.00,7,2,15,0.00
2014-5-10,86.4,76.0,68.9,68.0,61.1,56.0,71,60,51,30.07,29.97,11,4,19,0.01
2014-5-11,78.4,72.2,66.1,61.0,58.1,56.0,71,62,52,30.14,30.01,9,2,16,0.00
2014-5-12,87.3,76.1,63.4,68.0,63.2,57.0,84,66,47,30.18,30.09,7,2,14,0.00
2014-5-13,91.3,80.1,68.9,72.0,66.8,63.0,80,65,46,30.14,30.05,8,2,10,0.00
2014-5-14,76.0,69.8,63.9,65.0,62.4,59.0,86,78,67,30.19,30.10,5,1,10,0.00
2014-5-15,82.5,76.3,70.1,68.0,65.5,64.0,84,70,59,30.15,29.95,12,4,16,0.00
2014-5-16,74.4,69.4,64.3,67.0,61.9,51.0,85,77,61,29.94,29.80,9,2,17,2.51
2014-5-17,70.3,63.0,56.6,53.0,49.6,46.0,73,62,47,30.16,29.94,6,1,12,0.00
2014-5-18,66.3,61.2,55.0,52.0,49.1,45.0,83,66,50,30.21,30.14,12,2,14,0.00
2014-5-19,71.3,62.3,51.9,51.0,44.7,37.0,81,56,32,30.29,30.20,9,1,10,0.00
2014-5-20,78.6,67.9,56.3,56.0,50.8,44.0,63,55,42,30.24,30.05,9,3,16,0.00
2014-5-21,85.7,75.7,66.3,67.0,59.9,53.0,74,58,50,30.05,29.87,12,2,12,0.00
2014-5-22,87.0,75.8,68.0,68.0,63.7,60.0,83,67,42,29.90,29.78,6,1,11,0.28
2014-5-23,77.8,70.9,64.9,64.0,56.6,46.0,85,62,36,29.98,29.86,8,2,14,0.04
2014-5-24,72.7,67.2,62.0,58.0,53.2,49.0,77,61,54,30.11,29.97,9,2,16,0.01
2014-5-25,79.4,70.3,61.6,59.0,55.8,53.0,77,61,45,30.17,30.08,7,1,12,0.00
2014-5-26,85.2,75.5,64.6,66.0,60.3,55.0,78,60,45,30.18,30.02,15,3,18,0.00
2014-5-27,89.6,80.0,71.0,71.0,65.1,59.0,72,61,50,30.04,29.87,11,4,13,0.00
2014-5-28,91.0,78.0,64.6,69.0,64.4,60.0,84,64,45,30.04,29.87,11,2,12,0.34
2014-5-29,64.6,63.7,63.1,60.0,57.0,56.0,84,79,76,30.15,30.02,10,2,12,0.13
2014-5-30,67.7,64.2,60.0,57.0,55.8,54.0,82,74,65,30.12,30.06,5,1,10,0.00
2014-5-31,74.2,66.3,58.7,59.0,54.4,50.0,85,67,44,30.27,30.09,10,3,15,0.01
2014-6-1,69.2,63.3,55.1,53.0,47.9,42.0,72,58,38,30.36,30.26,8,2,13,0.00
2014-6-2,79.8,66.1,51.2,54.0,48.5,42.0,85,57,27,30.31,30.11,8,1,11,0.00
2014-6-3,86.7,75.0,62.2,64.0,58.2,50.0,73,57,44,30.13,29.88,6,2,11,0.00
2014-6-4,86.3,78.9,70.0,69.0,65.3,61.0,79,64,55,29.88,29.73,6,1,10,0.00
2014-6-5,85.4,76.5,68.2,69.0,64.3,59.0,80,66,57,29.85,29.65,11,4,19,0.15
2014-6-6,79.6,72.1,65.5,61.0,59.0,56.0,83,65,50,29.98,29.84,9,1,12,0.00
2014-6-7,79.4,72.1,62.2,62.0,57.2,55.0,85,61,43,30.04,29.96,6,1,10,0.00
2014-6-8,85.8,74.8,63.2,65.0,58.9,54.0,74,59,43,30.00,29.88,6,2,11,0.00
2014-6-9,82.8,75.7,68.1,71.0,64.1,57.0,77,68,58,29.94,29.88,11,3,20,0.06
2014-6-10,91.0,82.3,75.1,72.0,68.7,65.0,77,64,53,29.93,29.85,11,3,12,0.00
2014-6-11,85.7,78.2,74.5,71.0,68.9,67.0,82,73,61,29.98,29.90,7,1,12,0.00
2014-6-12,82.1,76.0,72.8,72.0,69.2,67.0,85,80,62,29.95,29.82,6,1,15,0.72
2014-6-13,86.6,76.0,70.4,70.0,66.5,62.0,85,74,57,29.86,29.75,10,2,15,0.18
2014-6-14,79.3,74.3,69.5,67.0,62.3,57.0,84,67,55,30.08,29.84,9,1,15,0.00
2014-6-15,82.7,72.4,65.2,63.0,57.8,54.0,73,61,48,30.19,30.08,6,1,9,0.00
2014-6-16,88.8,79.2,68.8,72.0,66.8,57.0,80,66,54,30.16,30.06,7,1,10,0.00
2014-6-17,93.3,83.5,75.1,75.0,69.7,67.0,76,64,47,30.11,30.02,10,2,12,0.00
2014-6-18,95.9,86.4,76.6,74.0,68.6,64.0,67,56,41,30.03,29.98,9,2,12,0.00
2014-6-19,95.2,82.8,70.6,73.0,68.5,62.0,84,63,43,30.02,29.92,9,3,22,0.60
2014-6-20,81.5,76.4,71.5,69.0,65.7,61.0,84,70,56,30.01,29.92,9,1,12,0.00
2014-6-21,81.6,75.2,70.1,70.0,66.8,63.0,85,75,61,29.93,29.81,7,1,10,0.21
2014-6-22,78.4,74.0,70.6,68.0,63.5,60.0,83,70,59,29.99,29.82,7,2,13,0.03
2014-6-23,79.9,73.7,68.0,64.0,61.1,58.0,78,65,55,30.16,29.98,9,1,14,0.00
2014-6-24,85.4,76.8,66.1,70.0,65.9,59.0,83,70,59,30.16,30.02,10,1,11,0.00
2014-6-25,89.8,81.2,75.0,72.0,69.9,68.0,83,69,56,30.04,29.86,8,2,12,0.00
2014-6-26,86.0,81.3,76.2,71.0,68.9,67.0,78,67,58,29.98,29.86,8,2,11,0.00
2014-6-27,86.5,79.3,74.5,70.0,68.3,66.0,82,70,56,30.14,29.97,10,1,13,0.00
2014-6-28,82.0,76.7,69.4,67.0,61.4,55.0,76,60,42,30.25,30.13,10,2,15,0.00
2014-6-29,79.7,73.0,64.8,64.0,60.5,56.0,80,66,59,30.24,30.13,9,1,12,0.00
2014-6-30,88.5,77.2,66.4,70.0,64.0,60.0,83,65,40,30.14,29.98,6,1,12,0.00
2014-7-1,91.5,81.3,72.9,72.0,68.3,65.0,80,66,52,30.00,29.88,11,2,16,0.00
2014-7-2,93.9,85.0,76.7,76.0,70.5,66.0,73,62,56,29.96,29.88,12,5,17,0.00
2014-7-3,94.1,84.3,78.2,75.0,71.9,69.0,79,67,53,30.00,29.87,12,5,18,0.00
2014-7-4,84.3,78.2,73.1,73.0,64.4,56.0,84,64,41,30.15,29.67,21,6,24,1.00
2014-7-5,79.7,74.5,68.0,59.0,54.9,44.0,62,52,29,30.25,30.15,10,2,14,0.00
2014-7-6,84.5,74.8,63.4,63.0,58.6,53.0,74,58,45,30.20,30.03,9,2,14,0.00
2014-7-7,89.9,81.0,71.3,70.0,65.6,59.0,73,60,48,30.03,29.90,12,5,19,0.00
2014-7-8,92.8,84.5,75.4,74.0,69.8,67.0,76,62,51,29.97,29.83,16,7,20,0.00
2014-7-9,92.9,80.7,72.1,73.0,68.9,65.0,84,68,52,30.05,29.88,11,4,25,1.49
2014-7-10,82.5,74.6,70.9,72.0,68.4,66.0,86,81,63,30.11,29.99,11,1,19,3.15
2014-7-11,81.1,75.4,71.5,69.0,66.8,65.0,86,75,59,30.20,30.08,7,1,9,0.00
2014-7-12,84.3,76.1,69.0,69.0,66.5,64.0,86,73,58,30.22,30.14,7,1,9,0.01
2014-7-13,90.1,80.5,70.6,72.0,68.7,66.0,85,68,50,30.15,29.98,8,3,14,0.01
2014-7-14,91.6,83.9,76.0,74.0,71.2,69.0,79,66,56,29.99,29.84,12,5,15,0.00
2014-7-15,90.6,80.5,73.4,75.0,70.9,67.0,81,73,58,29.86,29.73,19,4,22,0.54
2014-7-16,76.9,75.0,73.1,69.0,65.8,62.0,83,74,62,29.90,29.77,7,1,13,0.05
2014-7-17,81.8,75.5,68.6,66.0,63.4,60.0,85,67,54,30.11,29.89,5,1,10,0.00
2014-7-18,81.2,74.7,66.5,63.0,60.3,58.0,81,62,45,30.20,30.11,11,2,14,0.00
2014-7-19,78.1,74.8,69.7,66.0,62.8,57.0,74,67,62,30.18,30.07,11,2,15,0.00
2014-7-20,82.9,76.8,72.3,68.0,66.3,65.0,81,70,58,30.11,30.01,7,1,9,0.00
2014-7-21,79.1,75.6,73.0,69.0,67.1,66.0,80,75,65,30.17,30.09,4,0,7,0.00
2014-7-22,84.3,78.3,73.4,70.0,68.6,67.0,82,73,61,30.17,30.07,8,1,11,0.00
2014-7-23,89.5,81.4,74.0,72.0,70.4,69.0,84,70,56,30.07,29.85,10,2,13,0.00
2014-7-24,82.2,77.8,71.9,72.0,69.6,67.0,85,76,64,29.91,29.82,7,2,12,1.29
2014-7-25,81.0,75.1,69.6,68.0,62.7,58.0,85,67,51,30.05,29.88,7,1,13,0.05
2014-7-26,86.6,76.8,68.1,70.0,64.6,58.0,82,67,55,30.03,29.89,7,1,17,1.04
2014-7-27,84.8,78.8,72.9,71.0,69.2,67.0,83,73,59,29.92,29.73,7,2,15,0.01
2014-7-28,87.3,82.2,77.3,70.0,67.0,62.0,74,61,49,29.79,29.63,17,4,17,0.00
2014-7-29,77.6,73.6,68.8,62.0,59.5,57.0,68,62,54,29.99,29.80,7,2,12,0.00
2014-7-30,80.7,72.6,64.9,62.0,58.3,56.0,79,62,50,30.08,29.98,5,1,10,0.00
2014-7-31,84.7,75.4,66.3,67.0,62.6,59.0,79,65,51,30.15,30.07,5,1,10,0.00
2014-8-1,78.0,73.6,68.9,68.0,64.4,61.0,84,73,65,30.16,30.06,9,1,12,0.39
2014-8-2,74.1,72.6,71.3,69.0,67.2,66.0,86,83,77,30.12,30.03,5,0,8,1.37
2014-8-3,77.5,74.1,72.1,69.0,67.8,66.0,86,80,69,30.10,30.03,5,1,10,0.23
2014-8-4,80.2,75.1,70.2,68.0,66.9,65.0,85,76,62,30.09,30.04,3,0,7,0.00
2014-8-5,81.9,76.4,72.2,70.0,67.2,65.0,85,74,59,30.07,29.94,9,1,10,0.01
2014-8-6,87.8,78.4,71.9,71.0,67.5,65.0,83,70,57,29.95,29.86,8,1,11,0.01
2014-8-7,81.6,77.4,71.7,69.0,65.6,62.0,83,68,56,30.03,29.90,5,1,9,0.00
2014-8-8,81.6,75.1,68.3,67.0,63.8,62.0,86,69,54,30.12,30.03,5,0,7,0.01
2014-8-9,79.0,74.3,68.0,64.0,61.1,57.0,74,64,59,30.14,30.07,5,0,7,0.00
2014-8-10,81.8,74.8,67.9,65.0,62.7,60.0,83,67,50,30.13,30.07,7,1,13,0.00
2014-8-11,82.8,75.5,67.2,69.0,65.4,61.0,86,72,57,30.10,30.01,6,1,10,0.00
2014-8-12,86.3,79.6,75.1,73.0,70.1,64.0,83,73,64,30.01,29.75,7,2,15,0.21
2014-8-13,84.7,79.1,73.6,72.0,66.2,60.0,81,66,49,29.89,29.73,11,3,13,0.01
2014-8-14,83.0,76.4,70.6,61.0,57.7,50.0,65,53,37,30.00,29.89,9,2,11,0.00
2014-8-15,82.7,75.2,69.4,63.0,59.2,57.0,73,58,47,30.03,29.94,6,1,10,0.00
2014-8-16,86.2,77.6,68.7,69.0,66.0,59.0,85,68,57,30.02,29.94,7,1,11,0.28
2014-8-17,87.9,80.0,73.5,69.0,67.2,65.0,82,66,48,29.97,29.89,8,1,10,0.00
2014-8-18,89.0,77.3,72.9,72.0,68.0,65.0,84,74,57,29.92,29.80,9,0,17,0.36
2014-8-19,81.5,76.2,73.6,71.0,69.4,69.0,85,80,67,29.88,29.75,10,1,12,0.03
2014-8-20,83.3,78.0,74.9,69.0,67.0,65.0,80,69,58,30.02,29.86,6,1,9,0.00
2014-8-21,87.8,80.0,74.0,72.0,69.4,66.0,83,71,56,30.04,29.97,7,1,7,0.00
2014-8-22,84.3,80.3,76.3,72.0,68.8,67.0,79,68,58,29.98,29.92,7,1,10,0.00
2014-8-23,79.9,76.6,73.7,69.0,66.8,62.0,82,72,62,30.01,29.93,11,2,14,0.00
2014-8-24,76.8,74.4,71.7,63.0,60.2,58.0,69,62,58,30.09,29.99,13,5,19,0.00
2014-8-25,77.4,73.3,70.3,62.0,60.4,58.0,73,64,60,30.13,30.05,11,3,17,0.00
2014-8-26,78.7,74.7,71.2,66.0,63.1,61.0,78,68,60,30.13,30.06,8,2,14,0.00
2014-8-27,81.0,75.3,70.1,66.0,65.2,62.0,81,71,59,30.06,29.91,8,1,10,0.00
2014-8-28,85.0,77.6,69.0,69.0,65.7,61.0,81,67,58,30.03,29.88,8,1,15,0.00
2014-8-29,79.8,76.2,72.4,69.0,63.3,59.0,81,65,56,30.20,30.03,8,1,12,0.00
2014-8-30,86.6,78.6,73.1,71.0,66.0,61.0,81,66,58,30.23,30.13,7,1,9,0.00
2014-8-31,90.9,82.5,75.5,72.0,70.1,68.0,82,67,53,30.19,30.03,10,2,14,0.00
2014-9-1,93.5,84.5,77.2,75.0,71.3,67.0,81,65,54,30.08,29.96,9,4,16,0.00
2014-9-2,96.6,86.9,78.9,75.0,72.1,69.0,79,63,43,30.02,29.88,9,4,14,0.00
2014-9-3,86.4,81.0,77.8,72.0,69.8,68.0,81,69,60,30.11,29.94,8,2,14,0.00
2014-9-4,88.3,77.8,73.3,72.0,70.0,68.0,85,77,58,30.18,30.09,4,1,13,2.31
2014-9-5,88.9,80.1,73.6,72.0,70.3,69.0,85,73,57,30.19,30.06,7,1,12,0.00
2014-9-6,90.1,82.9,76.3,72.0,70.4,68.0,81,67,55,30.07,29.90,10,4,13,0.00
2014-9-7,79.7,76.2,72.6,71.0,67.0,63.0,80,73,68,30.11,29.92,8,2,14,0.07
2014-9-8,75.7,73.8,70.9,70.0,66.8,63.0,85,79,65,30.13,30.08,11,2,22,2.44
2014-9-9,77.9,74.8,73.0,72.0,68.2,65.0,86,80,68,30.09,30.00,10,2,16,1.46
2014-9-10,79.2,75.2,71.0,68.0,65.3,63.0,81,72,61,30.11,30.00,7,1,10,0.00
2014-9-11,86.7,78.2,70.1,71.0,67.5,64.0,83,70,57,30.04,29.90,10,3,15,0.00
2014-9-12,79.3,74.1,71.5,71.0,66.5,63.0,83,77,71,30.11,29.94,8,2,15,0.02
2014-9-13,81.8,74.4,68.6,70.0,65.0,59.0,84,73,62,30.17,30.03,8,1,16,0.44
2014-9-14,71.3,68.8,65.4,59.0,55.3,53.0,76,63,59,30.27,30.15,11,2,19,0.00
2014-9-15,73.1,68.4,62.9,59.0,57.4,56.0,80,68,60,30.23,30.09,4,0,7,0.00
2014-9-16,79.7,72.9,66.5,64.0,60.5,57.0,79,66,50,30.08,29.94,6,1,10,0.00
2014-9-17,75.1,71.4,64.9,61.0,58.4,56.0,73,64,59,30.01,29.93,10,2,12,0.00
2014-9-18,76.5,68.7,60.9,60.0,56.6,54.0,85,67,48,30.07,29.93,7,1,9,0.00
2014-9-19,77.6,70.3,63.2,61.0,58.0,55.0,80,66,56,30.26,30.07,8,1,10,0.00
2014-9-20,75.7,71.3,64.0,67.0,62.5,55.0,82,74,67,30.25,29.96,11,2,13,0.00
2014-9-21,82.1,75.3,72.0,68.0,65.6,62.0,84,73,53,29.96,29.70,8,2,12,0.14
2014-9-22,75.9,73.2,66.8,63.0,58.2,54.0,68,60,51,30.15,29.77,5,2,11,0.00
2014-9-23,68.7,64.5,62.5,55.0,51.3,49.0,69,63,60,30.32,30.15,13,3,15,0.00
2014-9-24,71.3,69.4,64.9,66.0,61.8,55.0,84,77,62,30.31,30.19,12,5,22,0.99
2014-9-25,71.0,68.9,67.0,66.0,63.0,60.0,85,81,73,30.21,30.13,6,2,10,0.27
2014-9-26,72.0,68.3,65.4,63.0,59.1,56.0,85,73,59,30.20,30.15,11,3,16,0.05
2014-9-27,76.2,69.5,62.4,63.0,59.0,57.0,85,70,57,30.22,30.15,6,1,11,0.01
2014-9-28,74.8,67.4,60.2,63.0,59.2,56.0,87,76,62,30.18,30.06,5,0,8,0.00
2014-9-29,74.3,68.8,63.3,65.0,60.5,59.0,87,76,61,30.06,29.94,5,0,7,0.01
2014-9-30,75.6,69.5,64.8,62.0,60.8,59.0,85,74,60,29.94,29.84,7,1,10,0.00
2014-10-1,74.2,69.8,64.9,63.0,60.9,58.0,85,74,64,30.05,29.90,6,1,13,0.01
2014-10-2,74.1,67.8,62.8,62.0,59.3,57.0,86,75,60,30.11,30.03,5,1,9,0.00
2014-10-3,74.4,68.5,61.5,64.0,60.3,57.0,86,76,62,30.10,29.80,8,1,9,0.00
2014-10-4,78.8,71.2,58.2,67.0,58.7,40.0,84,66,47,29.84,29.59,13,3,15,0.04
2014-10-5,65.6,57.5,48.3,45.0,40.6,37.0,74,55,41,30.04,29.84,8,2,13,0.00
2014-10-6,73.3,61.4,49.6,50.0,46.1,41.0,77,59,39,30.11,30.01,11,2,14,0.00
2014-10-7,76.4,67.8,58.8,60.0,55.1,49.0,73,64,57,30.14,29.99,9,3,15,0.00
2014-10-8,82.0,73.1,67.4,62.0,59.9,57.0,78,64,47,30.00,29.88,10,3,15,0.00
2014-10-9,74.9,67.8,58.2,56.0,52.6,49.0,80,59,41,30.15,29.99,6,1,10,0.00
2014-10-10,81.3,71.2,60.8,64.0,58.1,52.0,74,64,54,30.11,29.99,11,2,14,0.00
2014-10-11,79.3,68.4,62.6,66.0,59.8,56.0,84,75,62,30.10,29.95,9,3,16,0.20
2014-10-12,66.9,64.1,61.8,57.0,54.7,53.0,79,72,63,30.26,30.09,9,2,12,0.00
2014-10-13,80.8,72.3,62.8,67.0,62.4,54.0,81,71,60,30.27,30.18,8,2,12,0.01
2014-10-14,81.8,74.9,68.1,67.0,64.7,62.0,82,71,59,30.21,30.01,11,3,19,0.00
2014-10-15,79.8,73.8,64.5,71.0,66.4,59.0,84,78,70,30.00,29.78,10,3,16,0.57
2014-10-16,72.9,65.3,58.2,59.0,54.8,52.0,85,70,52,29.80,29.72,13,2,16,0.00
2014-10-17,73.8,64.6,56.6,57.0,53.0,50.0,78,67,54,29.88,29.76,6,1,11,0.00
2014-10-18,76.9,67.5,59.2,58.0,53.6,47.0,77,62,47,29.85,29.67,11,3,16,0.00
2014-10-19,62.3,57.0,47.4,46.0,41.5,37.0,78,57,40,30.13,29.85,14,4,19,0.00
2014-10-20,69.0,56.4,43.8,51.0,44.3,40.0,86,66,40,30.18,29.98,8,1,13,0.00
2014-10-21,74.2,65.2,59.1,57.0,52.9,50.0,81,66,47,29.97,29.79,8,1,12,0.00
2014-10-22,61.4,57.4,55.3,52.0,49.4,46.0,83,75,66,29.90,29.79,13,5,26,0.83
2014-10-23,66.5,59.3,54.3,52.0,46.6,43.0,66,63,58,29.91,29.82,15,6,21,0.00
2014-10-24,68.1,59.8,51.7,52.0,47.0,44.0,81,63,52,29.98,29.89,9,3,16,0.00
2014-10-25,70.3,58.7,47.3,50.0,45.6,41.0,85,65,35,29.99,29.77,5,1,10,0.00
2014-10-26,72.5,61.9,50.7,50.0,44.7,36.0,74,55,27,29.93,29.72,9,2,12,0.00
2014-10-27,72.8,57.9,44.8,53.0,43.5,37.0,86,63,31,30.12,29.94,5,0,8,0.01
2014-10-28,82.4,67.6,54.5,62.0,53.6,44.0,76,62,45,30.14,30.01,9,2,14,0.00
2014-10-29,77.4,68.2,57.0,61.0,56.3,50.0,78,66,54,30.02,29.88,11,4,21,0.26
2014-10-30,62.2,57.5,53.1,53.0,48.1,42.0,85,72,61,30.04,29.97,11,1,13,0.23
2014-10-31,59.5,55.6,50.6,46.0,43.3,40.0,71,64,59,30.00,29.76,8,2,14,0.00
2014-11-1,54.3,52.3,49.6,49.0,43.5,39.0,82,72,63,29.76,29.64,22,5,27,0.06
2014-11-2,51.2,47.4,42.3,39.0,33.3,29.0,74,59,47,30.24,29.74,18,7,26,0.02
2014-11-3,62.7,50.6,37.7,36.0,30.8,23.0,68,49,22,30.38,30.24,8,2,16,0.00
2014-11-4,71.0,59.0,48.7,45.0,39.8,34.0,61,50,37,30.30,30.18,8,3,10,0.00
2014-11-5,68.5,59.6,54.2,52.0,46.0,40.0,78,62,49,30.25,30.15,9,2,16,0.00
2014-11-6,68.7,62.9,53.8,60.0,54.9,45.0,82,75,68,30.15,29.67,12,4,21,0.35
2014-11-7,60.8,53.8,47.6,47.0,40.8,32.0,80,62,46,30.06,29.74,11,3,16,0.00
2014-11-8,59.2,50.1,38.2,42.0,37.5,31.0,79,62,50,30.11,29.96,7,1,11,0.00
2014-11-9,59.3,52.4,44.7,46.0,42.8,40.0,84,70,62,30.04,29.92,3,0,6,0.00
2014-11-10,63.4,53.3,42.5,52.0,45.6,39.0,87,76,60,30.15,30.04,7,1,11,0.01
2014-11-11,61.6,59.2,55.2,57.0,54.9,51.0,87,86,84,30.07,29.87,5,0,10,0.10
2014-11-12,69.5,62.7,55.5,61.0,54.5,42.0,87,75,61,30.07,29.86,8,2,12,0.01
2014-11-13,55.5,50.0,44.7,42.0,40.1,34.0,83,69,62,30.11,29.99,10,3,15,0.01
2014-11-14,45.9,41.7,37.3,35.0,28.5,24.0,72,60,50,30.30,30.02,21,4,21,0.00
2014-11-15,44.6,38.2,32.9,31.0,26.7,24.0,79,64,45,30.42,30.29,7,2,14,0.00
2014-11-16,52.6,44.1,32.6,45.0,36.2,27.0,85,74,61,30.41,30.05,3,0,8,0.20
2014-11-17,73.8,60.8,49.4,64.0,53.8,45.0,87,78,67,30.04,29.55,16,4,24,0.01
2014-11-18,55.0,40.2,32.5,46.0,24.2,14.0,72,54,40,30.30,29.75,11,4,16,0.00
2014-11-19,41.3,35.0,29.3,22.0,15.4,11.0,55,45,32,30.41,30.20,13,4,14,0.00
2014-11-20,57.7,46.4,37.1,32.0,28.4,22.0,63,51,35,30.20,29.94,13,4,23,0.00
2014-11-21,44.9,39.4,31.4,31.0,22.8,17.0,67,53,37,30.57,30.10,11,3,16,0.00
2014-11-22,52.1,39.4,27.5,30.0,24.6,20.0,81,58,34,30.57,30.33,7,1,11,0.00
2014-11-23,64.9,51.9,35.8,59.0,42.7,27.0,83,71,59,30.32,29.85,6,1,15,0.02
2014-11-24,75.7,70.0,64.9,63.0,60.6,57.0,84,73,58,29.88,29.74,15,6,21,0.07
2014-11-25,66.7,59.3,53.3,57.0,51.2,42.0,84,75,66,30.14,29.87,7,1,10,0.01
2014-11-26,53.5,46.4,41.2,49.0,41.5,35.0,85,83,78,30.08,29.72,17,5,24,1.34
2014-11-27,44.9,41.6,38.4,40.0,36.4,31.0,85,82,69,30.18,30.01,6,1,13,0.21
2014-11-28,44.0,38.4,31.9,31.0,26.9,25.0,81,64,48,30.32,30.18,12,2,18,0.00
2014-11-29,49.0,39.3,29.7,33.0,29.2,25.0,84,68,49,30.38,30.27,13,1,13,0.01
2014-11-30,67.1,53.6,39.6,48.0,40.5,31.0,78,62,48,30.29,30.15,16,3,24,0.00
2014-12-1,73.5,61.0,52.2,54.0,47.0,41.0,79,61,50,30.38,30.19,10,2,15,0.00
2014-12-2,51.6,46.4,44.5,45.0,40.8,37.0,89,81,68,30.49,30.33,8,2,14,0.01
2014-12-3,58.7,51.4,44.7,53.0,47.1,41.0,87,85,80,30.32,30.12,8,2,11,0.00
2014-12-4,52.4,46.2,43.8,47.0,34.5,30.0,82,64,52,30.46,30.27,10,2,13,0.00
2014-12-5,53.6,48.9,45.7,45.0,40.1,35.0,80,72,65,30.49,30.35,5,1,9,0.00
2014-12-6,64.0,55.9,48.3,56.0,49.9,43.0,86,80,68,30.34,30.01,6,0,16,0.38
2014-12-7,50.7,44.9,42.8,46.0,34.6,31.0,84,67,61,30.44,30.08,21,6,28,0.00
2014-12-8,47.2,44.3,42.7,43.0,37.2,31.0,86,76,64,30.43,30.06,15,4,22,0.10
2014-12-9,47.1,43.7,41.0,43.0,39.4,37.0,86,85,77,30.06,29.80,11,4,15,0.07
2014-12-10,52.4,47.5,42.5,38.0,35.4,30.0,77,63,56,29.88,29.79,13,4,18,0.00
2014-12-11,46.4,40.7,34.0,30.0,26.0,23.0,68,57,44,30.04,29.88,11,2,15,0.00
2014-12-12,49.1,41.4,33.5,31.0,25.4,20.0,77,54,39,30.14,30.04,10,1,13,0.00
2014-12-13,48.8,39.2,32.3,35.0,29.7,26.0,82,70,52,30.14,29.99,6,0,9,0.00
2014-12-14,53.2,40.9,32.2,38.0,32.8,28.0,86,74,56,30.04,29.96,6,0,8,0.01
2014-12-15,53.2,43.5,35.5,42.0,35.7,31.0,86,75,62,30.13,30.03,6,0,10,0.00
2014-12-16,62.9,50.0,38.9,49.0,43.3,35.0,86,78,59,30.11,29.86,9,1,12,0.27
2014-12-17,59.3,49.7,41.6,46.0,40.7,36.0,86,72,56,30.05,29.89,7,1,13,0.00
2014-12-18,46.7,41.7,37.0,36.0,29.9,27.0,74,64,47,30.18,30.03,9,2,12,0.00
2014-12-19,44.0,39.5,34.0,32.0,29.1,27.0,78,67,62,30.24,30.09,5,1,13,0.00
2014-12-20,40.4,38.2,33.1,30.0,28.6,27.0,81,69,65,30.32,30.23,4,0,8,0.00
2014-12-21,43.2,37.5,31.3,33.0,29.8,27.0,85,74,64,30.36,30.26,6,1,9,0.00
2014-12-22,49.9,45.5,40.9,46.0,40.5,33.0,86,82,73,30.28,30.00,10,3,18,0.96
2014-12-23,50.0,46.1,41.9,46.0,41.8,38.0,87,85,81,30.09,29.97,6,1,8,0.01
2014-12-24,70.2,64.1,49.1,65.0,59.1,45.0,87,84,71,30.02,29.64,14,4,19,1.68
2014-12-25,68.1,56.7,41.5,61.0,46.6,36.0,83,70,51,30.24,29.64,13,3,17,0.03
2014-12-26,54.9,44.9,37.9,42.0,37.8,34.0,86,77,62,30.36,30.23,5,0,7,0.00
2014-12-27,62.4,48.7,36.8,44.0,38.4,33.0,87,70,46,30.33,30.14,6,1,9,0.01
2014-12-28,65.5,58.3,49.6,55.0,48.4,38.0,83,70,62,30.13,29.95,10,3,16,0.01
2014-12-29,59.2,46.5,42.5,54.0,41.2,32.0,85,82,66,30.22,30.03,10,3,17,0.55
2014-12-30,43.7,40.6,35.9,33.0,30.7,26.0,79,68,64,30.43,30.20,9,3,18,0.05
2014-12-31,43.8,35.2,29.7,33.0,27.4,24.0,85,74,52,30.45,30.32,7,1,11,0.00
2015-1-1,50.3,40.3,29.9,34.0,26.3,21.0,76,59,37,30.33,30.14,12,3,22,0.00
2015-1-2,52.1,47.6,42.9,38.0,35.4,33.0,70,63,52,30.41,30.18,8,2,13,0.00